Weather Roundup
Issued by NWS Chicago, IL

Home | Current Version | Previous Version | Graphics & Text | Print | Product List | Glossary On
Versions: 1 2 3 4 5 6 7 8 9 10 11 12 13 14 15 16 17 18 19 20 21 22 23 24 25 26 27 28 29 30 31 32 33 34 35 36 37 38 39 40 41 42 43 44 45 46 47 48 49 50
000
NZUS59 KLOT 180910
HRRLOT

CHICAGO AREA WEATHER ROUNDUP
NATIONAL WEATHER SERVICE CHICAGO/ROMEOVILLE IL
300 AM CST THU DEC 18 2014

NOTE: "FAIR" INDICATES FEW OR NO CLOUDS BELOW 12,000 FEET WITH NO
SIGNIFICANT WEATHER AND/OR OBSTRUCTIONS TO VISIBILITY.

* THESE STATIONS ARE NOT UNDER NWS QUALITY CONTROL. THEY ALSO MAY NOT
  REPORT WEATHER SUCH AS PRECIPITATION OR FOG.

ILZ005-006-012>014-019>023-181000-
NORTHEAST ILLINOIS

CITY           SKY/WX    TMP DP  RH WIND       PRES   REMARKS
OHARE          PTCLDY    21  15  78 N6        30.27F WCI  13
MIDWAY         CLOUDY    26  16  65 CALM      30.28F
AURORA         CLOUDY    23  15  71 CALM      30.28S
LANSING*       CLOUDY    25  17  70 W3        30.29S
JOLIET*        CLOUDY    23  17  79 CALM      30.29F
WAUKEGAN       CLEAR     18  13  80 NW5       30.26F WCI  11
DUPAGE AIRPORT CLOUDY    23  15  71 CALM      30.27S
WHEELING       PTCLDY    20  14  77 NW5       30.30S WCI  13
KANKAKEE*      CLOUDY    25  19  78 CALM      30.30F
MORRIS*        CLOUDY    20  19  94 CALM      30.29S
LEWIS AIRPORT* CLOUDY    23  17  77 NW3       30.29R
NORTHERLY IS   NOT AVBL
$$

WIZ051-052-058>065-066-070>072-181000-
SOUTHEAST WISCONSIN

CITY           SKY/WX    TMP DP  RH WIND       PRES   REMARKS
MILWAUKEE      CLEAR     20  13  74 W9        30.26F WCI   9
KENOSHA*       CLEAR     18  14  84 NW5       30.26F WCI  11
RACINE*        CLEAR     18  13  80 CALM      30.28F
BURLINGTON     CLEAR     17  13  86 CALM      30.26F
WAUKESHA       CLEAR     16  14  93 W6        30.27F WCI   7
WEST BEND      CLOUDY    23  19  86 W3        30.25S
$$

INZ001>003-010>013-019-020-181000-
NORTHWEST INDIANA

CITY           SKY/WX    TMP DP  RH WIND       PRES   REMARKS
GARY*          CLOUDY    27  18  69 W3        30.29F
MICHIGAN CITY* NOT AVBL
RENSSELAER*    NOT AVBL
VALPARAISO     CLOUDY    25  18  74 SW6       30.28S WCI  18
$$

LMZ740>746-181000-
SOUTHERN LAKE MICHIGAN

STATION/POSITION TIME  SKY/WX   TEMP WIND        PRES    VSBY
                                AIR  DIR/SP/G
                 (UTC)          (F)  (DEG/KT/KT) (MB)    (MI)
HARRISON CRIB    0900            24  300/  5/  7   N/A
BURNHAM HARBOR   0900            25  280/  4/  8   N/A
CALUMET HARBOR   0900            25  290/  3/  5 1024.1R
BURNS HARBOR     NOT AVBL
MICHIGAN CITY    NOT AVBL
$$

ABBREVIATIONS USED IN REMARKS
   TC - TEMPERATURE IN CELSIUS
  WCI - WIND CHILL INDEX
   HX - HEAT INDEX
  VSB - VISIBILITY
$$



USA.gov is the U.S. government's official web portal to all federal, state and local government web resources and services.